Powrót do katalogu

SL-12 DEB *

LostUNKNOWN
NORAD 21657·DEBRIS·🇷🇺 Russia

Wystrzelony Apr 24, 1987 z Baikonur Cosmodrome

Loading…

Następne Przeloty (najbliższe 24 godziny)

TLE

NieaktualneSource: Space-Track

Epoka: Nov 14, 2025, 01:48 UTC

1 21657U 87036M   25318.07500916  .00013246  00000-0  10365+0 0  9992
2 21657  64.8391 307.9472 1613904 351.8711   5.8655 10.45064860112711

Śledź SL-12 DEB * w czasie rzeczywistym z AllMySat

Download on the App Store